When you browse on this site, cookies collect data to enhance your experience and personalize the content and advertising you see.
Visit our Privacy Policy to learn more. By continuing to use the site, you agree to this use of cookies and data.
  • In Spain
  • List of Countries
  • For 7 days
  • Water Temperature
  • Weather Map
  • Weather Widgets
  • user-avatar
    Login

    Hourly Weather El Quseir

    Today, 24 February, Monday

    Time Temperature Precipitation Wind Pressure Humidity
    00:00 +14°C° 0 mm 4 mps 760 mmHg 65%
    01:00 +13°C° 0 mm 4 mps 760 mmHg 64%
    02:00 +13°C° 0 mm 5 mps 759 mmHg 59%
    03:00 +13°C° 0 mm 5 mps 759 mmHg 55%
    04:00 +13°C° 0 mm 5 mps 759 mmHg 52%
    05:00 +12°C° 0 mm 5 mps 759 mmHg 48%
    06:00 +14°C° 0 mm 4 mps 759 mmHg 44%
    07:00 +17°C° 0 mm 4 mps 759 mmHg 39%
    08:00 +18°C° 0 mm 4 mps 759 mmHg 35%
    09:00 +19°C° 0 mm 4 mps 759 mmHg 32%
    10:00 +21°C° 0 mm 3 mps 759 mmHg 29%
    11:00 +22°C° 0 mm 3 mps 759 mmHg 26%
    12:00 +22°C° 0 mm 3 mps 759 mmHg 26%
    13:00 +22°C° 0 mm 3 mps 758 mmHg 27%
    14:00 +24°C° 0 mm 3 mps 757 mmHg 25%
    15:00 +22°C° 0 mm 3 mps 757 mmHg 27%
    16:00 +21°C° 0 mm 3 mps 757 mmHg 29%
    17:00 +20°C° 0 mm 3 mps 758 mmHg 30%
    18:00 +19°C° 0.1 mm 5 mps 758 mmHg 37%
    19:00 +16°C° 0.1 mm 7 mps 759 mmHg 43%
    20:00 +13°C° 0.1 mm 9 mps 759 mmHg 49%
    21:00 +13°C° 0 mm 8 mps 759 mmHg 52%
    22:00 +12°C° 0 mm 7 mps 760 mmHg 55%
    23:00 +11°C° 0 mm 7 mps 760 mmHg 58%

    Tomorrow, 25 February, Tuesday

    Time Temperature Precipitation Wind Pressure Humidity
    00:00 +10°C° 0 mm 6 mps 760 mmHg 61%
    01:00 +10°C° 0 mm 5 mps 759 mmHg 65%
    02:00 +9°C° 0 mm 5 mps 759 mmHg 68%
    03:00 +9°C° 0 mm 6 mps 759 mmHg 68%
    04:00 +9°C° 0 mm 7 mps 760 mmHg 68%
    05:00 +9°C° 0 mm 8 mps 760 mmHg 68%
    06:00 +10°C° 0.1 mm 8 mps 760 mmHg 64%
    07:00 +11°C° 0.1 mm 8 mps 761 mmHg 59%
    08:00 +13°C° 0.1 mm 8 mps 761 mmHg 54%
    09:00 +16°C° 0 mm 8 mps 762 mmHg 47%
    10:00 +18°C° 0 mm 8 mps 762 mmHg 40%
    11:00 +20°C° 0 mm 8 mps 762 mmHg 32%
    12:00 +22°C° 0 mm 8 mps 762 mmHg 29%
    13:00 +23°C° 0 mm 9 mps 761 mmHg 26%
    14:00 +24°C° 0 mm 10 mps 760 mmHg 23%
    15:00 +23°C° 0 mm 10 mps 761 mmHg 28%
    16:00 +22°C° 0 mm 11 mps 761 mmHg 33%
    17:00 +21°C° 0 mm 12 mps 762 mmHg 38%
    18:00 +18°C° 0 mm 11 mps 762 mmHg 46%
    19:00 +16°C° 0 mm 10 mps 763 mmHg 53%
    20:00 +13°C° 0 mm 9 mps 763 mmHg 61%
    21:00 +12°C° 0 mm 8 mps 763 mmHg 63%
    22:00 +12°C° 0 mm 7 mps 763 mmHg 65%
    23:00 +11°C° 0 mm 6 mps 764 mmHg 67%

    Day after tomorrow, 26 February, Wednesday

    Time Temperature Precipitation Wind Pressure Humidity
    00:00 +11°C° 0 mm 6 mps 763 mmHg 68%
    01:00 +12°C° 0 mm 5 mps 763 mmHg 69%
    02:00 +12°C° 0 mm 4 mps 763 mmHg 70%
    03:00 +11°C° 0 mm 4 mps 763 mmHg 70%
    04:00 +11°C° 0 mm 4 mps 763 mmHg 71%
    05:00 +11°C° 0 mm 3 mps 763 mmHg 71%
    06:00 +13°C° 0 mm 4 mps 764 mmHg 62%
    07:00 +15°C° 0 mm 4 mps 764 mmHg 54%
    08:00 +18°C° 0 mm 4 mps 764 mmHg 45%
    09:00 +20°C° 0 mm 4 mps 764 mmHg 42%
    10:00 +21°C° 0 mm 4 mps 765 mmHg 39%
    11:00 +22°C° 0 mm 4 mps 765 mmHg 35%
    12:00 +23°C° 0 mm 4 mps 764 mmHg 38%
    13:00 +23°C° 0 mm 4 mps 763 mmHg 40%
    14:00 +23°C° 0 mm 4 mps 763 mmHg 43%
    15:00 +22°C° 0 mm 4 mps 763 mmHg 47%
    16:00 +21°C° 0 mm 3 mps 763 mmHg 51%
    17:00 +21°C° 0 mm 2 mps 762 mmHg 55%
    18:00 +19°C° 0 mm 2 mps 763 mmHg 64%
    19:00 +18°C° 0 mm 1 mps 763 mmHg 74%
    20:00 +15°C° 0 mm 1 mps 763 mmHg 83%
    21:00 +14°C° 0 mm 1 mps 763 mmHg 81%
    22:00 +14°C° 0 mm 2 mps 764 mmHg 79%
    23:00 +13°C° 0 mm 3 mps 764 mmHg 78%

    27 February, Thursday

    Time Temperature Precipitation Wind Pressure Humidity
    00:00 +13°C° 0 mm 3 mps 763 mmHg 74%
    01:00 +13°C° 0 mm 3 mps 763 mmHg 71%
    02:00 +13°C° 0 mm 4 mps 763 mmHg 67%
    03:00 +12°C° 0 mm 4 mps 763 mmHg 67%
    04:00 +12°C° 0 mm 4 mps 763 mmHg 67%
    05:00 +11°C° 0 mm 4 mps 762 mmHg 67%
    06:00 +14°C° 0 mm 4 mps 763 mmHg 54%
    07:00 +18°C° 0 mm 4 mps 763 mmHg 42%
    08:00 +20°C° 0 mm 4 mps 763 mmHg 30%
    09:00 +22°C° 0 mm 4 mps 763 mmHg 29%
    10:00 +25°C° 0 mm 4 mps 763 mmHg 28%
    11:00 +26°C° 0 mm 4 mps 763 mmHg 26%
    12:00 +26°C° 0 mm 4 mps 762 mmHg 28%
    13:00 +26°C° 0 mm 4 mps 761 mmHg 29%
    14:00 +27°C° 0 mm 4 mps 761 mmHg 31%
    15:00 +26°C° 0 mm 3 mps 761 mmHg 34%
    16:00 +25°C° 0 mm 3 mps 761 mmHg 38%
    17:00 +24°C° 0 mm 2 mps 760 mmHg 42%
    18:00 +21°C° 0 mm 2 mps 761 mmHg 46%
    19:00 +19°C° 0 mm 2 mps 761 mmHg 51%
    20:00 +17°C° 0 mm 3 mps 761 mmHg 56%
    21:00 +17°C° 0 mm 3 mps 761 mmHg 55%
    22:00 +17°C° 0 mm 4 mps 761 mmHg 54%
    23:00 +17°C° 0 mm 4 mps 761 mmHg 52%

    28 February, Friday

    Time Temperature Precipitation Wind Pressure Humidity
    00:00 +16°C° 0 mm 5 mps 760 mmHg 51%
    01:00 +15°C° 0 mm 5 mps 760 mmHg 51%
    02:00 +15°C° 0 mm 6 mps 760 mmHg 50%
    03:00 +15°C° 0 mm 6 mps 760 mmHg 44%
    04:00 +15°C° 0 mm 7 mps 759 mmHg 39%
    05:00 +15°C° 0 mm 7 mps 759 mmHg 34%
    06:00 +18°C° 0 mm 7 mps 760 mmHg 30%
    07:00 +21°C° 0 mm 7 mps 760 mmHg 25%
    08:00 +24°C° 0 mm 7 mps 760 mmHg 21%
    09:00 +26°C° 0 mm 7 mps 760 mmHg 20%
    10:00 +28°C° 0 mm 7 mps 760 mmHg 19%
    11:00 +30°C° 0 mm 7 mps 759 mmHg 17%
    12:00 +30°C° 0 mm 7 mps 759 mmHg 19%
    13:00 +30°C° 0 mm 7 mps 758 mmHg 21%
    14:00 +30°C° 0 mm 7 mps 757 mmHg 23%
    15:00 +29°C° 0 mm 7 mps 757 mmHg 27%
    16:00 +28°C° 0 mm 7 mps 757 mmHg 30%
    17:00 +27°C° 0 mm 7 mps 757 mmHg 33%
    18:00 +24°C° 0 mm 7 mps 757 mmHg 38%
    19:00 +22°C° 0 mm 7 mps 758 mmHg 43%
    20:00 +20°C° 0 mm 7 mps 758 mmHg 48%
    21:00 +18°C° 0 mm 7 mps 758 mmHg 43%
    22:00 +18°C° 0 mm 8 mps 758 mmHg 38%
    23:00 +18°C° 0 mm 9 mps 758 mmHg 33%

    29 February, Saturday

    Time Temperature Precipitation Wind Pressure Humidity
    00:00 +18°C° 0 mm 9 mps 758 mmHg 33%
    01:00 +18°C° 0 mm 9 mps 758 mmHg 34%
    02:00 +18°C° 0 mm 9 mps 758 mmHg 34%
    03:00 +17°C° 0 mm 10 mps 758 mmHg 36%
    04:00 +16°C° 0 mm 10 mps 758 mmHg 39%
    05:00 +16°C° 0 mm 11 mps 758 mmHg 41%
    06:00 +18°C° 0 mm 11 mps 759 mmHg 36%
    07:00 +21°C° 0 mm 11 mps 759 mmHg 31%
    08:00 +23°C° 0 mm 11 mps 760 mmHg 26%
    09:00 +24°C° 0 mm 11 mps 760 mmHg 25%
    10:00 +27°C° 0 mm 11 mps 760 mmHg 23%
    11:00 +28°C° 0 mm 12 mps 760 mmHg 21%
    12:00 +28°C° 0 mm 12 mps 759 mmHg 21%
    13:00 +28°C° 0 mm 12 mps 759 mmHg 22%
    14:00 +28°C° 0 mm 12 mps 758 mmHg 23%
    15:00 +27°C° 0 mm 13 mps 758 mmHg 23%
    16:00 +26°C° 0 mm 13 mps 758 mmHg 23%
    17:00 +24°C° 0 mm 13 mps 759 mmHg 23%
    18:00 +22°C° 0 mm 13 mps 759 mmHg 26%
    19:00 +19°C° 0 mm 13 mps 759 mmHg 29%
    20:00 +17°C° 0 mm 12 mps 760 mmHg 33%
    21:00 +15°C° 0 mm 12 mps 760 mmHg 34%
    22:00 +14°C° 0 mm 12 mps 760 mmHg 35%
    23:00 +13°C° 0 mm 11 mps 760 mmHg 35%
    Show more